Time,TemperatureF,DewpointF,PressureIn,WindDirection,WindDirectionDegrees,WindSpeedMPH,WindSpeedGustMPH,Humidity,HourlyPrecipIn,Conditions,Clouds,dailyrainin,SoftwareType,DateUTC
2013-10-09 00:00:00,50.6,45.1,30.37,NNE,17,0.0,229.5,81,1.19,,,0.00,VWS V14.01,2013-10-09 04:00:00,
2013-10-09 00:01:00,51.3,45.1,30.37,NNE,17,0.0,229.5,79,1.19,,,0.00,VWS V14.01,2013-10-09 04:01:00,
2013-10-09 00:02:00,51.2,45.0,30.37,NNE,17,0.0,229.5,79,1.19,,,0.00,VWS V14.01,2013-10-09 04:02:00,
2013-10-09 00:03:00,51.3,45.3,30.37,NNE,17,0.0,229.5,80,1.19,,,0.00,VWS V14.01,2013-10-09 04:03:00,
2013-10-09 00:04:00,51.2,45.2,30.37,NNE,17,0.0,229.5,80,1.19,,,0.00,VWS V14.01,2013-10-09 04:04:00,
2013-10-09 00:05:00,51.3,45.3,30.37,NNE,17,0.0,229.5,80,1.19,,,0.00,VWS V14.01,2013-10-09 04:05:00,
2013-10-09 00:06:00,50.6,45.5,30.37,NNE,17,0.0,229.5,83,1.19,,,0.00,VWS V14.01,2013-10-09 04:06:00,
2013-10-09 00:07:00,50.4,45.1,30.37,NNE,17,0.0,229.5,82,1.19,,,0.00,VWS V14.01,2013-10-09 04:07:00,
2013-10-09 00:08:00,50.4,45.1,30.37,NNE,17,0.0,229.5,82,1.19,,,0.00,VWS V14.01,2013-10-09 04:08:00,
2013-10-09 00:09:00,50.4,45.0,30.37,NNE,17,0.0,229.5,82,1.19,,,0.00,VWS V14.01,2013-10-09 04:09:00,
2013-10-09 00:10:00,51.1,44.8,30.37,NNE,17,0.0,229.5,79,1.19,,,0.00,VWS V14.01,2013-10-09 04:10:00,
2013-10-09 00:11:00,50.4,44.8,30.37,NNE,17,0.0,229.5,81,1.19,,,0.00,VWS V14.01,2013-10-09 04:11:00,
2013-10-09 00:13:00,50.5,44.9,30.37,NNE,17,0.0,229.5,81,1.19,,,0.00,VWS V14.01,2013-10-09 04:13:00,
2013-10-09 00:14:00,50.4,44.8,30.37,NNE,17,0.0,229.5,81,1.19,,,0.00,VWS V14.01,2013-10-09 04:14:00,
2013-10-09 00:15:00,51.1,44.8,30.37,NNE,17,0.0,229.5,79,1.19,,,0.00,VWS V14.01,2013-10-09 04:15:00,
2013-10-09 00:16:00,50.4,44.7,30.37,NNE,17,0.0,229.5,81,1.19,,,0.00,VWS V14.01,2013-10-09 04:16:00,
2013-10-09 00:17:00,50.5,44.7,30.37,NNE,17,0.0,229.5,80,1.19,,,0.00,VWS V14.01,2013-10-09 04:17:00,
2013-10-09 00:18:00,50.4,44.6,30.37,NNE,17,0.0,229.5,80,1.19,,,0.00,VWS V14.01,2013-10-09 04:18:00,
2013-10-09 00:19:00,50.4,44.6,30.37,NNE,17,0.0,229.5,80,1.19,,,0.00,VWS V14.01,2013-10-09 04:19:00,
2013-10-09 00:20:00,50.3,44.5,30.37,NNE,17,0.0,229.5,80,1.19,,,0.00,VWS V14.01,2013-10-09 04:20:00,
2013-10-09 00:21:00,50.8,44.6,30.37,NNE,17,0.0,229.5,79,1.19,,,0.00,VWS V14.01,2013-10-09 04:21:00,
2013-10-09 00:22:00,50.4,44.8,30.37,NNE,17,0.0,229.5,81,1.19,,,0.00,VWS V14.01,2013-10-09 04:22:00,
2013-10-09 00:23:00,50.3,45.0,30.37,NNE,17,0.0,229.5,82,1.19,,,0.00,VWS V14.01,2013-10-09 04:23:00,
2013-10-09 00:24:00,50.3,44.9,30.37,NNE,17,0.0,229.5,82,1.19,,,0.00,VWS V14.01,2013-10-09 04:24:00,
2013-10-09 00:25:00,50.4,45.0,30.37,NNE,17,0.0,229.5,82,1.19,,,0.00,VWS V14.01,2013-10-09 04:25:00,
2013-10-09 00:26:00,50.6,45.1,30.37,NNE,17,0.0,229.5,81,1.19,,,0.00,VWS V14.01,2013-10-09 04:26:00,
2013-10-09 00:27:00,50.4,45.0,30.37,NNE,17,0.0,229.5,82,1.19,,,0.00,VWS V14.01,2013-10-09 04:27:00,
2013-10-09 00:28:00,50.3,45.1,30.37,NNE,17,0.0,229.5,82,1.19,,,0.00,VWS V14.01,2013-10-09 04:28:00,
2013-10-09 00:29:00,50.2,45.2,30.37,NNE,17,0.0,229.5,83,1.19,,,0.00,VWS V14.01,2013-10-09 04:29:00,
2013-10-09 00:30:00,50.2,45.3,30.37,NNE,17,0.0,229.5,83,1.19,,,0.00,VWS V14.01,2013-10-09 04:30:00,
2013-10-09 00:31:00,50.7,45.5,30.37,NNE,17,0.0,229.5,82,1.19,,,0.00,VWS V14.01,2013-10-09 04:31:00,
2013-10-09 00:32:00,50.2,45.5,30.37,NNE,17,0.0,229.5,84,1.19,,,0.00,VWS V14.01,2013-10-09 04:32:00,
2013-10-09 00:33:00,50.1,45.4,30.37,NNE,17,0.0,229.5,84,1.19,,,0.00,VWS V14.01,2013-10-09 04:33:00,
2013-10-09 00:35:00,50.2,45.5,30.37,NNE,17,0.0,229.5,84,1.19,,,0.00,VWS V14.01,2013-10-09 04:35:00,
2013-10-09 00:36:00,50.1,45.3,30.37,NNE,17,0.0,229.5,84,1.19,,,0.00,VWS V14.01,2013-10-09 04:36:00,
2013-10-09 00:37:00,50.5,45.1,30.37,NNE,17,0.0,229.5,82,1.19,,,0.00,VWS V14.01,2013-10-09 04:37:00,
2013-10-09 00:38:00,50.2,45.1,30.37,NNE,17,0.0,229.5,83,1.19,,,0.00,VWS V14.01,2013-10-09 04:38:00,
2013-10-09 00:39:00,50.1,44.8,30.37,NNE,17,0.0,229.5,82,1.19,,,0.00,VWS V14.01,2013-10-09 04:39:00,
2013-10-09 00:40:00,50.2,44.7,30.37,NNE,17,0.0,229.5,81,1.19,,,0.00,VWS V14.01,2013-10-09 04:40:00,
2013-10-09 00:41:00,50.1,44.6,30.37,NNE,17,0.0,229.5,81,1.19,,,0.00,VWS V14.01,2013-10-09 04:41:00,
2013-10-09 00:42:00,50.6,45.0,30.37,NNE,17,0.0,229.5,81,1.19,,,0.00,VWS V14.01,2013-10-09 04:42:00,
2013-10-09 00:43:00,50.1,44.5,30.37,NNE,17,0.0,229.5,81,1.19,,,0.00,VWS V14.01,2013-10-09 04:43:00,
2013-10-09 00:44:00,50.1,44.5,30.38,NNE,17,0.0,229.5,81,1.19,,,0.00,VWS V14.01,2013-10-09 04:44:00,
2013-10-09 00:45:00,50.1,44.5,30.38,NNE,17,0.0,229.5,81,1.19,,,0.00,VWS V14.01,2013-10-09 04:45:00,
2013-10-09 00:46:00,50.0,44.3,30.37,NNE,17,0.0,229.5,81,1.19,,,0.00,VWS V14.01,2013-10-09 04:46:00,
2013-10-09 00:47:00,50.6,45.3,30.37,NNE,17,0.0,229.5,82,1.19,,,0.00,VWS V14.01,2013-10-09 04:47:00,
2013-10-09 00:48:00,50.0,44.3,30.37,NNE,17,0.0,229.5,81,1.19,,,0.00,VWS V14.01,2013-10-09 04:48:00,
2013-10-09 00:49:00,50.1,44.3,30.37,NNE,17,0.0,229.5,80,1.19,,,0.00,VWS V14.01,2013-10-09 04:49:00,
2013-10-09 00:50:00,50.0,44.2,30.37,NNE,17,0.0,229.5,80,1.19,,,0.00,VWS V14.01,2013-10-09 04:50:00,
2013-10-09 00:51:00,50.0,44.2,30.37,NNE,17,0.0,229.5,80,1.19,,,0.00,VWS V14.01,2013-10-09 04:51:00,
2013-10-09 00:52:00,50.1,44.3,30.37,NNE,17,0.0,229.5,80,1.19,,,0.00,VWS V14.01,2013-10-09 04:52:00,
2013-10-09 00:53:00,50.4,44.9,30.37,NNE,17,0.0,229.5,81,1.19,,,0.00,VWS V14.01,2013-10-09 04:53:00,
2013-10-09 00:54:00,49.9,44.2,30.37,NNE,17,0.0,229.5,81,1.19,,,0.00,VWS V14.01,2013-10-09 04:54:00,
2013-10-09 00:55:00,50.0,44.2,30.37,NNE,17,0.0,229.5,80,1.19,,,0.00,VWS V14.01,2013-10-09 04:55:00,
2013-10-09 00:56:00,50.0,44.2,30.37,NNE,17,0.0,229.5,80,1.19,,,0.00,VWS V14.01,2013-10-09 04:56:00,
2013-10-09 00:58:00,50.0,44.2,30.37,NNE,17,0.0,229.5,80,1.19,,,0.00,VWS V14.01,2013-10-09 04:58:00,
2013-10-09 00:59:00,50.0,44.2,30.37,NNE,17,0.0,229.5,80,1.19,,,0.00,VWS V14.01,2013-10-09 04:59:00,
2013-10-09 01:00:00,49.9,44.1,30.37,NNE,17,0.0,229.5,80,1.19,,,0.00,VWS V14.01,2013-10-09 05:00:00,
2013-10-09 01:01:00,50.0,44.2,30.37,NNE,17,0.0,229.5,80,1.19,,,0.00,VWS V14.01,2013-10-09 05:01:00,
2013-10-09 01:02:00,49.9,44.0,30.37,NNE,17,0.0,229.5,80,1.19,,,0.00,VWS V14.01,2013-10-09 05:02:00,
2013-10-09 01:03:00,49.9,43.8,30.37,NNE,17,0.0,229.5,80,1.19,,,0.00,VWS V14.01,2013-10-09 05:03:00,
2013-10-09 01:04:00,49.9,43.9,30.37,NNE,17,0.0,229.5,80,1.19,,,0.00,VWS V14.01,2013-10-09 05:04:00,
2013-10-09 01:05:00,49.9,43.9,30.37,NNE,17,0.0,229.5,80,1.19,,,0.00,VWS V14.01,2013-10-09 05:05:00,
2013-10-09 01:06:00,49.9,44.3,30.37,NNE,17,0.0,229.5,81,1.19,,,0.00,VWS V14.01,2013-10-09 05:06:00,
2013-10-09 01:07:00,49.9,44.4,30.37,NNE,17,0.0,229.5,81,1.19,,,0.00,VWS V14.01,2013-10-09 05:07:00,
2013-10-09 01:08:00,49.9,44.4,30.37,NNE,17,0.0,229.5,81,1.19,,,0.00,VWS V14.01,2013-10-09 05:08:00,
2013-10-09 01:09:00,49.8,44.2,30.37,NNE,17,0.0,229.5,81,1.19,,,0.00,VWS V14.01,2013-10-09 05:09:00,
2013-10-09 01:10:00,49.9,44.2,30.37,NNE,17,0.0,229.5,81,1.19,,,0.00,VWS V14.01,2013-10-09 05:10:00,
2013-10-09 01:11:00,49.9,44.2,30.37,NNE,17,0.0,229.5,81,1.19,,,0.00,VWS V14.01,2013-10-09 05:11:00,
2013-10-09 01:12:00,49.9,44.0,30.38,NNE,17,0.0,229.5,80,1.19,,,0.00,VWS V14.01,2013-10-09 05:12:00,
2013-10-09 01:14:00,49.9,43.6,30.38,NNE,17,0.0,229.5,79,1.19,,,0.00,VWS V14.01,2013-10-09 05:14:00,
2013-10-09 01:16:00,49.9,44.0,30.37,NNE,17,0.0,229.5,80,1.19,,,0.00,VWS V14.01,2013-10-09 05:16:00,
2013-10-09 01:17:00,49.9,44.1,30.37,NNE,17,0.0,229.5,80,1.19,,,0.00,VWS V14.01,2013-10-09 05:17:00,
2013-10-09 01:18:00,49.9,44.1,30.38,NNE,17,0.0,229.5,80,1.19,,,0.00,VWS V14.01,2013-10-09 05:18:00,
2013-10-09 01:19:00,49.9,44.1,30.37,NNE,17,0.0,229.5,80,1.19,,,0.00,VWS V14.01,2013-10-09 05:19:00,
2013-10-09 01:20:00,50.0,44.2,30.37,NNE,17,0.0,229.5,80,1.19,,,0.00,VWS V14.01,2013-10-09 05:20:00,
2013-10-09 01:22:00,49.9,44.1,30.37,NNE,17,0.0,229.5,80,1.19,,,0.00,VWS V14.01,2013-10-09 05:22:00,
2013-10-09 01:24:00,49.9,44.2,30.37,NNE,17,0.0,229.5,80,1.19,,,0.00,VWS V14.01,2013-10-09 05:24:00,
2013-10-09 01:25:00,49.9,44.2,30.37,NNE,17,0.0,229.5,80,1.19,,,0.00,VWS V14.01,2013-10-09 05:25:00,
2013-10-09 01:26:00,49.9,44.1,30.37,NNE,17,0.0,229.5,80,1.19,,,0.00,VWS V14.01,2013-10-09 05:26:00,
2013-10-09 01:27:00,49.9,44.0,30.37,NNE,17,0.0,229.5,80,1.19,,,0.00,VWS V14.01,2013-10-09 05:27:00,
2013-10-09 01:28:00,49.9,44.0,30.37,NNE,17,0.0,229.5,80,1.19,,,0.00,VWS V14.01,2013-10-09 05:28:00,
2013-10-09 01:29:00,49.9,44.1,30.37,NNE,17,0.0,229.5,80,1.19,,,0.00,VWS V14.01,2013-10-09 05:29:00,
2013-10-09 01:30:00,50.0,44.2,30.37,NNE,17,0.0,229.5,80,1.19,,,0.00,VWS V14.01,2013-10-09 05:30:00,
2013-10-09 01:31:00,49.9,44.1,30.37,NNE,17,0.0,229.5,80,1.19,,,0.00,VWS V14.01,2013-10-09 05:31:00,
2013-10-09 01:32:00,49.9,44.1,30.37,NNE,17,0.0,229.5,80,1.19,,,0.00,VWS V14.01,2013-10-09 05:32:00,
2013-10-09 01:33:00,49.9,44.1,30.38,NNE,17,0.0,229.5,80,1.19,,,0.00,VWS V14.01,2013-10-09 05:33:00,
2013-10-09 01:35:00,49.9,44.1,30.37,NNE,17,0.0,229.5,80,1.19,,,0.00,VWS V14.01,2013-10-09 05:35:00,
2013-10-09 01:38:00,49.9,44.3,30.37,NNE,17,0.0,229.5,81,1.19,,,0.00,VWS V14.01,2013-10-09 05:38:00,
2013-10-09 01:39:00,49.9,44.3,30.38,NNE,17,0.0,229.5,81,1.19,,,0.00,VWS V14.01,2013-10-09 05:39:00,
2013-10-09 01:40:00,49.9,44.2,30.37,NNE,17,0.0,229.5,81,1.19,,,0.00,VWS V14.01,2013-10-09 05:40:00,
2013-10-09 01:41:00,49.8,44.0,30.37,NNE,17,0.0,229.5,80,1.19,,,0.00,VWS V14.01,2013-10-09 05:41:00,
2013-10-09 01:42:00,49.8,44.0,30.37,NNE,17,0.0,229.5,80,1.19,,,0.00,VWS V14.01,2013-10-09 05:42:00,
2013-10-09 01:43:00,49.7,43.8,30.37,NNE,17,0.0,229.5,80,1.19,,,0.00,VWS V14.01,2013-10-09 05:43:00,
2013-10-09 01:44:00,49.9,44.0,30.37,NNE,17,0.0,229.5,80,1.19,,,0.00,VWS V14.01,2013-10-09 05:44:00,
2013-10-09 01:45:00,49.9,44.1,30.38,NNE,17,0.0,229.5,80,1.19,,,0.00,VWS V14.01,2013-10-09 05:45:00,
2013-10-09 01:46:00,49.8,44.0,30.37,NNE,17,0.0,229.5,80,1.19,,,0.00,VWS V14.01,2013-10-09 05:46:00,
2013-10-09 01:47:00,49.7,43.9,30.37,NNE,17,0.0,229.5,80,1.19,,,0.00,VWS V14.01,2013-10-09 05:47:00,
2013-10-09 01:48:00,49.7,44.0,30.37,NNE,17,0.0,229.5,80,1.19,,,0.00,VWS V14.01,2013-10-09 05:48:00,
2013-10-09 01:49:00,49.8,44.1,30.37,NNE,17,0.0,229.5,81,1.19,,,0.00,VWS V14.01,2013-10-09 05:49:00,
2013-10-09 01:51:00,49.7,44.1,30.38,NNE,17,0.0,229.5,81,1.19,,,0.00,VWS V14.01,2013-10-09 05:51:00,
2013-10-09 01:53:00,49.6,44.0,30.37,NNE,17,0.0,229.5,81,1.19,,,0.00,VWS V14.01,2013-10-09 05:53:00,
2013-10-09 01:54:00,49.6,44.2,30.37,NNE,17,0.0,229.5,82,1.19,,,0.00,VWS V14.01,2013-10-09 05:54:00,
2013-10-09 01:58:00,49.6,43.9,30.38,NNE,17,0.0,229.5,81,1.19,,,0.00,VWS V14.01,2013-10-09 05:58:00,
2013-10-09 02:03:00,49.5,43.8,30.38,NNE,17,0.0,229.5,81,1.19,,,0.00,VWS V14.01,2013-10-09 06:03:00,
2013-10-09 02:08:00,49.5,44.0,30.38,NNE,17,0.0,229.5,81,1.19,,,0.00,VWS V14.01,2013-10-09 06:08:00,
2013-10-09 02:11:00,49.9,43.9,30.38,NNE,17,0.0,229.5,80,1.19,,,0.00,VWS V14.01,2013-10-09 06:11:00,
2013-10-09 02:12:00,49.5,44.0,30.38,NNE,17,0.0,229.5,81,1.19,,,0.00,VWS V14.01,2013-10-09 06:12:00,
2013-10-09 02:13:00,49.5,44.0,30.38,NNE,17,0.0,229.5,81,1.19,,,0.00,VWS V14.01,2013-10-09 06:13:00,
2013-10-09 02:15:00,49.4,44.0,30.38,NNE,17,0.0,229.5,82,1.19,,,0.00,VWS V14.01,2013-10-09 06:15:00,
2013-10-09 02:17:00,49.9,44.1,30.37,NNE,17,0.0,229.5,80,1.19,,,0.00,VWS V14.01,2013-10-09 06:17:00,
2013-10-09 02:22:00,49.4,44.3,30.38,NNE,17,0.0,229.5,82,1.19,,,0.00,VWS V14.01,2013-10-09 06:22:00,
2013-10-09 02:28:00,49.3,44.3,30.38,NNE,17,0.0,229.5,83,1.19,,,0.00,VWS V14.01,2013-10-09 06:28:00,
2013-10-09 02:29:00,49.3,44.3,30.38,NNE,17,0.0,229.5,83,1.19,,,0.00,VWS V14.01,2013-10-09 06:29:00,
2013-10-09 02:30:00,49.2,44.1,30.38,NNE,17,0.0,229.5,82,1.19,,,0.00,VWS V14.01,2013-10-09 06:30:00,
2013-10-09 02:31:00,49.9,44.1,30.38,NNE,17,0.0,229.5,80,1.19,,,0.00,VWS V14.01,2013-10-09 06:31:00,
2013-10-09 02:32:00,49.3,44.2,30.38,NNE,17,0.0,229.5,83,1.19,,,0.00,VWS V14.01,2013-10-09 06:32:00,
2013-10-09 02:34:00,49.2,44.1,30.38,NNE,17,0.0,229.5,83,1.19,,,0.00,VWS V14.01,2013-10-09 06:34:00,
2013-10-09 02:46:00,49.7,44.0,30.37,NNE,17,0.0,229.5,81,1.19,,,0.00,VWS V14.01,2013-10-09 06:46:00,
2013-10-09 02:49:00,49.1,44.8,30.38,NNE,17,0.0,229.5,85,1.19,,,0.00,VWS V14.01,2013-10-09 06:49:00,
2013-10-09 02:52:00,49.6,44.1,30.37,NNE,17,0.0,229.5,81,1.19,,,0.00,VWS V14.01,2013-10-09 06:52:00,
2013-10-09 02:57:00,49.6,44.0,30.38,NNE,17,0.0,229.5,81,1.19,,,0.00,VWS V14.01,2013-10-09 06:57:00,
2013-10-09 03:00:00,48.9,44.4,30.37,NNE,17,0.0,229.5,84,1.19,,,0.00,VWS V14.01,2013-10-09 07:00:00,
2013-10-09 03:02:00,49.5,43.7,30.38,NNE,17,0.0,229.5,80,1.19,,,0.00,VWS V14.01,2013-10-09 07:02:00,
2013-10-09 03:06:00,48.8,44.6,30.38,NNE,17,0.0,229.5,85,1.19,,,0.00,VWS V14.01,2013-10-09 07:06:00,
2013-10-09 03:07:00,49.5,43.9,30.38,NNE,17,0.0,229.5,81,1.19,,,0.00,VWS V14.01,2013-10-09 07:07:00,
2013-10-09 03:12:00,49.5,44.2,30.38,NNE,17,0.0,229.5,82,1.19,,,0.00,VWS V14.01,2013-10-09 07:12:00,
2013-10-09 03:13:00,48.6,44.8,30.38,NNE,17,0.0,229.5,87,1.19,,,0.00,VWS V14.01,2013-10-09 07:13:00,
2013-10-09 03:14:00,48.6,44.9,30.38,NNE,17,0.0,229.5,87,1.19,,,0.00,VWS V14.01,2013-10-09 07:14:00,
2013-10-09 03:19:00,49.3,44.2,30.38,NNE,17,0.0,229.5,83,1.19,,,0.00,VWS V14.01,2013-10-09 07:19:00,
2013-10-09 03:27:00,49.3,44.2,30.38,NNE,17,0.0,229.5,82,1.19,,,0.00,VWS V14.01,2013-10-09 07:27:00,
2013-10-09 03:33:00,49.2,44.1,30.38,NNE,17,0.0,229.5,83,1.19,,,0.00,VWS V14.01,2013-10-09 07:33:00,
2013-10-09 03:38:00,49.1,44.0,30.38,NNE,17,0.0,229.5,83,1.19,,,0.00,VWS V14.01,2013-10-09 07:38:00,
2013-10-09 03:43:00,49.1,44.8,30.38,NNE,17,0.0,229.5,85,1.19,,,0.00,VWS V14.01,2013-10-09 07:43:00,
2013-10-09 03:48:00,49.0,44.3,30.38,NNE,17,0.0,229.5,84,1.19,,,0.00,VWS V14.01,2013-10-09 07:48:00,
2013-10-09 03:53:00,48.9,44.7,30.38,NNE,17,0.0,229.5,85,1.19,,,0.00,VWS V14.01,2013-10-09 07:53:00,
2013-10-09 03:59:00,48.8,44.3,30.38,NNE,17,0.0,229.5,84,1.19,,,0.00,VWS V14.01,2013-10-09 07:59:00,
2013-10-09 04:04:00,48.8,44.6,30.38,NNE,17,0.0,229.5,85,1.19,,,0.00,VWS V14.01,2013-10-09 08:04:00,
2013-10-09 04:11:00,48.6,44.8,30.38,NNE,17,0.0,229.5,87,1.19,,,0.00,VWS V14.01,2013-10-09 08:11:00,
2013-10-09 04:16:00,48.5,45.0,30.38,NNE,17,0.0,229.5,88,1.19,,,0.00,VWS V14.01,2013-10-09 08:16:00,
2013-10-09 04:22:00,48.4,45.0,30.38,NNE,17,0.0,229.5,88,1.19,,,0.00,VWS V14.01,2013-10-09 08:22:00,
2013-10-09 04:27:00,48.2,45.2,30.38,NNE,17,0.0,229.5,89,1.19,,,0.00,VWS V14.01,2013-10-09 08:27:00,
2013-10-09 04:32:00,48.2,44.0,30.38,NNE,17,0.0,229.5,85,1.19,,,0.00,VWS V14.01,2013-10-09 08:32:00,
2013-10-09 04:37:00,48.4,43.4,30.38,NNE,17,0.0,229.5,83,1.19,,,0.00,VWS V14.01,2013-10-09 08:37:00,
2013-10-09 04:43:00,48.6,42.8,30.39,NNE,17,0.0,229.5,80,1.19,,,0.00,VWS V14.01,2013-10-09 08:43:00,
2013-10-09 04:48:00,48.8,42.8,30.38,NNE,17,0.0,229.5,80,1.19,,,0.00,VWS V14.01,2013-10-09 08:48:00,
2013-10-09 04:53:00,48.9,42.3,30.38,NNE,17,0.0,229.5,78,1.19,,,0.00,VWS V14.01,2013-10-09 08:53:00,
2013-10-09 04:59:00,49.0,42.9,30.39,NNE,17,0.0,229.5,79,1.19,,,0.00,VWS V14.01,2013-10-09 08:59:00,
2013-10-09 05:04:00,49.0,42.8,30.38,NNE,17,0.0,229.5,79,1.19,,,0.00,VWS V14.01,2013-10-09 09:04:00,
2013-10-09 05:09:00,49.0,42.9,30.38,NNE,17,0.0,229.5,79,1.19,,,0.00,VWS V14.01,2013-10-09 09:09:00,
2013-10-09 05:14:00,49.0,43.2,30.38,NNE,17,0.0,229.5,80,1.19,,,0.00,VWS V14.01,2013-10-09 09:14:00,
2013-10-09 05:20:00,48.8,43.1,30.38,NNE,17,0.0,229.5,81,1.19,,,0.00,VWS V14.01,2013-10-09 09:20:00,
2013-10-09 05:25:00,48.7,42.9,30.38,NNE,17,0.0,229.5,80,1.19,,,0.00,VWS V14.01,2013-10-09 09:25:00,
2013-10-09 05:31:00,48.7,43.3,30.38,NNE,17,0.0,229.5,81,1.19,,,0.00,VWS V14.01,2013-10-09 09:31:00,
2013-10-09 05:36:00,48.6,42.7,30.38,NNE,17,0.0,229.5,80,1.19,,,0.00,VWS V14.01,2013-10-09 09:36:00,
2013-10-09 05:41:00,48.5,42.9,30.39,NNE,17,0.0,229.5,81,1.19,,,0.00,VWS V14.01,2013-10-09 09:41:00,
2013-10-09 05:47:00,48.5,43.0,30.39,NNE,17,0.0,229.5,81,1.19,,,0.00,VWS V14.01,2013-10-09 09:47:00,
2013-10-09 05:52:00,48.4,43.1,30.39,NNE,17,0.0,229.5,82,1.19,,,0.00,VWS V14.01,2013-10-09 09:52:00,
2013-10-09 05:58:00,48.2,43.0,30.39,NNE,17,0.0,229.5,82,1.19,,,0.00,VWS V14.01,2013-10-09 09:58:00,
2013-10-09 06:03:00,48.2,43.3,30.39,NNE,17,0.0,229.5,83,1.19,,,0.00,VWS V14.01,2013-10-09 10:03:00,
2013-10-09 06:09:00,48.1,43.3,30.39,NNE,17,0.0,229.5,84,1.19,,,0.00,VWS V14.01,2013-10-09 10:09:00,
2013-10-09 06:14:00,48.0,43.3,30.39,NNE,17,0.0,229.5,84,1.19,,,0.00,VWS V14.01,2013-10-09 10:14:00,
2013-10-09 06:20:00,48.0,43.5,30.40,NNE,17,0.0,229.5,84,1.19,,,0.00,VWS V14.01,2013-10-09 10:20:00,
2013-10-09 06:25:00,47.8,43.5,30.40,NNE,17,0.0,229.5,85,1.19,,,0.00,VWS V14.01,2013-10-09 10:25:00,
2013-10-09 06:31:00,47.7,43.5,30.40,NNE,17,0.0,229.5,85,1.19,,,0.00,VWS V14.01,2013-10-09 10:31:00,
2013-10-09 06:36:00,47.6,43.3,30.39,NNE,17,0.0,229.5,85,1.19,,,0.00,VWS V14.01,2013-10-09 10:36:00,
2013-10-09 06:41:00,47.5,43.6,30.40,NNE,17,0.0,229.5,86,1.19,,,0.00,VWS V14.01,2013-10-09 10:41:00,
2013-10-09 06:46:00,47.4,43.8,30.39,NNE,17,0.0,229.5,87,1.19,,,0.00,VWS V14.01,2013-10-09 10:46:00,
2013-10-09 06:52:00,47.5,44.0,30.39,NNE,17,0.0,229.5,88,1.19,,,0.00,VWS V14.01,2013-10-09 10:52:00,
2013-10-09 06:57:00,47.4,44.0,30.40,NNE,17,0.0,229.5,88,1.19,,,0.00,VWS V14.01,2013-10-09 10:57:00,
2013-10-09 07:02:00,47.5,44.0,30.40,NNE,17,0.0,229.5,88,1.19,,,0.00,VWS V14.01,2013-10-09 11:02:00,
2013-10-09 07:07:00,47.5,44.1,30.40,NNE,17,0.0,229.5,88,1.19,,,0.00,VWS V14.01,2013-10-09 11:07:00,
2013-10-09 07:13:00,47.5,44.2,30.41,NNE,17,0.0,229.5,88,1.19,,,0.00,VWS V14.01,2013-10-09 11:13:00,
2013-10-09 07:18:00,47.4,44.4,30.41,NNE,17,0.0,229.5,89,1.19,,,0.00,VWS V14.01,2013-10-09 11:18:00,
2013-10-09 07:23:00,47.5,44.6,30.41,NNE,17,0.0,229.5,90,1.19,,,0.00,VWS V14.01,2013-10-09 11:23:00,
2013-10-09 07:28:00,47.6,44.5,30.41,NNE,17,0.0,229.5,89,1.19,,,0.00,VWS V14.01,2013-10-09 11:28:00,
2013-10-09 07:33:00,47.7,44.9,30.41,NNE,17,0.0,229.5,90,1.19,,,0.00,VWS V14.01,2013-10-09 11:33:00,
2013-10-09 07:38:00,49.8,46.0,30.44,NNE,17,0.0,229.5,87,1.19,,,0.00,VWS V14.01,2013-10-09 11:38:00,
2013-10-09 07:39:00,47.9,45.1,30.41,NNE,17,0.0,229.5,90,1.19,,,0.00,VWS V14.01,2013-10-09 11:39:00,
2013-10-09 07:44:00,48.2,45.4,30.41,NNE,17,0.0,229.5,90,1.19,,,0.00,VWS V14.01,2013-10-09 11:44:00,
2013-10-09 07:49:00,48.3,45.3,30.41,NNE,17,0.0,229.5,89,1.19,,,0.00,VWS V14.01,2013-10-09 11:49:00,
2013-10-09 07:54:00,48.5,45.6,30.42,NNE,17,0.0,229.5,90,1.19,,,0.00,VWS V14.01,2013-10-09 11:54:00,
2013-10-09 08:00:00,48.7,45.7,30.42,NNE,17,0.0,229.5,89,1.19,,,0.00,VWS V14.01,2013-10-09 12:00:00,
2013-10-09 08:05:00,48.8,45.6,30.42,NNE,17,0.0,229.5,89,1.19,,,0.00,VWS V14.01,2013-10-09 12:05:00,
2013-10-09 08:09:00,50.6,46.2,30.44,NNE,17,0.0,229.5,85,1.19,,,0.00,VWS V14.01,2013-10-09 12:09:00,
2013-10-09 08:10:00,49.1,45.8,30.42,NNE,17,0.0,229.5,88,1.19,,,0.00,VWS V14.01,2013-10-09 12:10:00,
2013-10-09 08:15:00,49.3,45.9,30.43,NNE,17,0.0,229.5,88,1.19,,,0.00,VWS V14.01,2013-10-09 12:15:00,
2013-10-09 08:21:00,49.5,46.1,30.43,NNE,17,0.0,229.5,88,1.19,,,0.00,VWS V14.01,2013-10-09 12:21:00,
2013-10-09 08:23:00,51.1,46.2,30.45,NNE,17,0.0,229.5,83,1.19,,,0.00,VWS V14.01,2013-10-09 12:23:00,
2013-10-09 08:26:00,49.6,46.0,30.44,NNE,17,0.0,229.5,87,1.19,,,0.00,VWS V14.01,2013-10-09 12:26:00,
2013-10-09 08:28:00,51.2,46.3,30.45,NNE,17,0.0,229.5,83,1.19,,,0.00,VWS V14.01,2013-10-09 12:28:00,
2013-10-09 08:31:00,49.7,45.9,30.44,NNE,17,0.0,229.5,87,1.19,,,0.00,VWS V14.01,2013-10-09 12:31:00,
2013-10-09 08:33:00,51.4,46.6,30.45,NNE,17,0.0,229.5,84,1.19,,,0.00,VWS V14.01,2013-10-09 12:33:00,
2013-10-09 08:35:00,51.4,46.2,30.45,NNE,17,0.0,229.5,82,1.19,,,0.00,VWS V14.01,2013-10-09 12:35:00,
2013-10-09 08:36:00,49.8,45.8,30.44,NNE,17,0.0,229.5,86,1.19,,,0.00,VWS V14.01,2013-10-09 12:36:00,
2013-10-09 08:37:00,51.5,46.5,30.45,NNE,17,0.0,229.5,83,1.19,,,0.00,VWS V14.01,2013-10-09 12:37:00,
2013-10-09 08:42:00,49.7,45.7,30.43,NNE,17,0.0,229.5,86,1.19,,,0.00,VWS V14.01,2013-10-09 12:42:00,
2013-10-09 08:47:00,49.8,45.7,30.43,NNE,17,0.0,229.5,86,1.19,,,0.00,VWS V14.01,2013-10-09 12:47:00,
2013-10-09 08:52:00,50.0,45.9,30.44,NNE,17,0.0,229.5,86,1.19,,,0.00,VWS V14.01,2013-10-09 12:52:00,
2013-10-09 08:57:00,50.3,46.0,30.44,NNE,17,0.0,229.5,85,1.19,,,0.00,VWS V14.01,2013-10-09 12:57:00,
2013-10-09 08:58:00,52.9,47.0,30.44,NNE,17,0.0,229.5,80,1.19,,,0.00,VWS V14.01,2013-10-09 12:58:00,
2013-10-09 09:01:00,52.8,46.8,30.44,NNE,17,0.0,229.5,80,1.19,,,0.00,VWS V14.01,2013-10-09 13:01:00,
2013-10-09 09:02:00,50.5,46.1,30.44,NNE,17,0.0,229.5,85,1.19,,,0.00,VWS V14.01,2013-10-09 13:02:00,
2013-10-09 09:07:00,50.8,46.4,30.44,NNE,17,0.0,229.5,85,1.19,,,0.00,VWS V14.01,2013-10-09 13:07:00,
2013-10-09 09:11:00,53.5,47.2,30.44,NNE,17,0.0,229.5,79,1.19,,,0.00,VWS V14.01,2013-10-09 13:11:00,
2013-10-09 09:13:00,51.0,46.5,30.44,NNE,17,0.0,229.5,85,1.19,,,0.00,VWS V14.01,2013-10-09 13:13:00,
2013-10-09 09:18:00,51.0,46.2,30.45,NNE,17,0.0,229.5,84,1.19,,,0.00,VWS V14.01,2013-10-09 13:18:00,
2013-10-09 09:22:00,54.0,47.1,30.44,NNE,17,0.0,229.5,78,1.19,,,0.00,VWS V14.01,2013-10-09 13:22:00,
2013-10-09 09:23:00,51.2,46.4,30.45,NNE,17,0.0,229.5,84,1.19,,,0.00,VWS V14.01,2013-10-09 13:23:00,
2013-10-09 09:26:00,54.1,46.0,30.44,NNE,17,0.0,229.5,74,1.19,,,0.00,VWS V14.01,2013-10-09 13:26:00,
2013-10-09 09:27:00,54.2,46.5,30.44,NNE,17,0.0,229.5,75,1.19,,,0.00,VWS V14.01,2013-10-09 13:27:00,
2013-10-09 09:28:00,51.3,46.5,30.45,NNE,17,0.0,229.5,84,1.19,,,0.00,VWS V14.01,2013-10-09 13:28:00,
2013-10-09 09:29:00,54.4,46.8,30.44,NNE,17,0.0,229.5,75,1.19,,,0.00,VWS V14.01,2013-10-09 13:29:00,
2013-10-09 09:35:00,51.6,46.5,30.45,NNE,17,0.0,229.5,82,1.19,,,0.00,VWS V14.01,2013-10-09 13:35:00,
2013-10-09 09:40:00,51.8,46.5,30.44,NNE,17,0.0,229.5,82,1.19,,,0.00,VWS V14.01,2013-10-09 13:40:00,
2013-10-09 09:45:00,52.1,46.4,30.44,NNE,17,0.0,229.5,81,1.19,,,0.00,VWS V14.01,2013-10-09 13:45:00,
2013-10-09 09:46:00,55.4,46.6,30.44,NNE,17,0.0,229.5,72,1.19,,,0.00,VWS V14.01,2013-10-09 13:46:00,
2013-10-09 09:47:00,55.6,46.7,30.44,NNE,17,0.0,229.5,72,1.19,,,0.00,VWS V14.01,2013-10-09 13:47:00,
2013-10-09 09:50:00,52.8,46.8,30.44,NNE,17,0.0,229.5,80,1.19,,,0.00,VWS V14.01,2013-10-09 13:50:00,
2013-10-09 09:56:00,52.8,46.8,30.44,NNE,17,0.0,229.5,80,1.19,,,0.00,VWS V14.01,2013-10-09 13:56:00,
2013-10-09 10:01:00,53.1,46.9,30.44,NNE,17,0.0,229.5,79,1.19,,,0.00,VWS V14.01,2013-10-09 14:01:00,
2013-10-09 10:06:00,53.4,47.0,30.44,NNE,17,0.0,229.5,79,1.19,,,0.00,VWS V14.01,2013-10-09 14:06:00,
2013-10-09 10:11:00,53.7,47.2,30.44,NNE,17,0.0,229.5,78,1.19,,,0.00,VWS V14.01,2013-10-09 14:11:00,
2013-10-09 10:17:00,53.9,46.9,30.44,NNE,17,0.0,229.5,77,1.19,,,0.00,VWS V14.01,2013-10-09 14:17:00,
2013-10-09 10:24:00,54.3,46.7,30.44,NNE,17,0.0,229.5,75,1.19,,,0.00,VWS V14.01,2013-10-09 14:24:00,
2013-10-09 10:29:00,54.6,46.8,30.44,NNE,17,0.0,229.5,75,1.19,,,0.00,VWS V14.01,2013-10-09 14:29:00,
2013-10-09 10:35:00,54.9,46.1,30.44,NNE,17,0.0,229.5,72,1.19,,,0.00,VWS V14.01,2013-10-09 14:35:00,
2013-10-09 10:40:00,55.2,46.6,30.44,NNE,17,0.0,229.5,73,1.19,,,0.00,VWS V14.01,2013-10-09 14:40:00,
2013-10-09 10:45:00,55.7,47.0,30.44,NNE,17,0.0,229.5,72,1.19,,,0.00,VWS V14.01,2013-10-09 14:45:00,
2013-10-09 10:56:00,56.7,47.2,30.44,NNE,17,0.0,0.0,70,0.00,,,0.00,VWS V14.01,2013-10-09 14:56:00,
2013-10-09 10:59:00,56.7,47.2,30.43,NNE,17,0.0,0.0,70,1.19,,,0.00,VWS V14.01,2013-10-09 14:59:00,
2013-10-09 11:00:00,56.7,47.2,30.43,NNE,17,0.0,0.0,70,0.00,,,0.00,VWS V14.01,2013-10-09 15:00:00,
2013-10-09 11:01:00,56.9,46.7,30.43,NNE,17,0.0,0.0,69,0.00,,,0.00,VWS V14.01,2013-10-09 15:01:00,
2013-10-09 11:02:00,56.8,46.5,30.43,NNE,17,0.0,0.0,68,0.00,,,0.00,VWS V14.01,2013-10-09 15:02:00,
2013-10-09 11:06:00,57.1,46.9,30.43,NNE,17,0.0,0.0,69,0.00,,,0.00,VWS V14.01,2013-10-09 15:06:00,
2013-10-09 11:11:00,57.3,46.5,30.43,SE,143,0.0,6.3,67,0.00,,,0.00,VWS V14.01,2013-10-09 15:11:00,
2013-10-09 11:16:00,57.6,46.9,30.42,SE,143,0.0,6.3,67,0.00,,,0.00,VWS V14.01,2013-10-09 15:16:00,
2013-10-09 11:21:00,58.0,47.1,30.43,SE,143,0.0,6.3,67,0.00,,,0.00,VWS V14.01,2013-10-09 15:21:00,
2013-10-09 11:26:00,58.5,47.0,30.43,SE,143,0.0,6.3,66,0.00,,,0.00,VWS V14.01,2013-10-09 15:26:00,
2013-10-09 11:32:00,58.9,47.4,30.43,SE,143,0.0,6.3,66,0.00,,,0.00,VWS V14.01,2013-10-09 15:32:00,
2013-10-09 11:37:00,59.4,47.1,30.43,SE,143,0.0,6.3,64,0.00,,,0.00,VWS V14.01,2013-10-09 15:37:00,
2013-10-09 11:42:00,59.7,47.5,30.42,SE,143,0.0,6.3,64,0.00,,,0.00,VWS V14.01,2013-10-09 15:42:00,
2013-10-09 11:47:00,60.1,45.5,30.42,SE,143,0.0,6.3,58,0.00,,,0.00,VWS V14.01,2013-10-09 15:47:00,
2013-10-09 11:52:00,60.2,46.3,30.42,SE,143,0.0,6.3,60,0.00,,,0.00,VWS V14.01,2013-10-09 15:52:00,
2013-10-09 11:57:00,60.5,47.0,30.42,SE,143,0.0,6.3,61,0.00,,,0.00,VWS V14.01,2013-10-09 15:57:00,
2013-10-09 12:02:00,60.8,45.5,30.41,SE,143,0.0,6.3,57,0.00,,,0.00,VWS V14.01,2013-10-09 16:02:00,
2013-10-09 12:07:00,60.9,45.5,30.42,SE,143,0.0,6.3,57,0.00,,,0.00,VWS V14.01,2013-10-09 16:07:00,
2013-10-09 12:12:00,61.4,46.7,30.41,SE,143,0.0,6.3,58,0.00,,,0.00,VWS V14.01,2013-10-09 16:12:00,
2013-10-09 12:17:00,61.6,45.5,30.42,SE,143,0.0,6.3,55,0.00,,,0.00,VWS V14.01,2013-10-09 16:17:00,
2013-10-09 12:22:00,61.8,45.5,30.42,SE,143,0.0,6.3,55,0.00,,,0.00,VWS V14.01,2013-10-09 16:22:00,
2013-10-09 12:27:00,62.2,45.1,30.42,SE,143,0.0,6.3,54,0.00,,,0.00,VWS V14.01,2013-10-09 16:27:00,
2013-10-09 12:32:00,62.3,45.2,30.42,SE,143,0.0,6.3,53,0.00,,,0.00,VWS V14.01,2013-10-09 16:32:00,
2013-10-09 12:38:00,62.5,45.7,30.42,SE,143,0.0,6.3,54,0.00,,,0.00,VWS V14.01,2013-10-09 16:38:00,
2013-10-09 12:43:00,62.7,45.8,30.41,SE,143,0.0,6.3,54,0.00,,,0.00,VWS V14.01,2013-10-09 16:43:00,
2013-10-09 12:48:00,63.1,46.2,30.42,SE,143,0.0,6.3,54,0.00,,,0.00,VWS V14.01,2013-10-09 16:48:00,
2013-10-09 12:53:00,63.4,45.8,30.41,SE,143,0.0,6.3,53,0.00,,,0.00,VWS V14.01,2013-10-09 16:53:00,
2013-10-09 12:58:00,63.5,46.2,30.41,SE,143,0.0,6.3,53,0.00,,,0.00,VWS V14.01,2013-10-09 16:58:00,
2013-10-09 13:03:00,63.7,46.5,30.41,SE,143,0.0,6.3,53,0.00,,,0.00,VWS V14.01,2013-10-09 17:03:00,
2013-10-09 13:08:00,63.8,46.1,30.40,SE,143,0.0,6.3,52,0.00,,,0.00,VWS V14.01,2013-10-09 17:08:00,
2013-10-09 13:13:00,63.7,46.2,30.40,SE,143,0.0,6.3,53,0.00,,,0.00,VWS V14.01,2013-10-09 17:13:00,
2013-10-09 13:18:00,63.7,46.2,30.40,SE,143,0.0,6.3,53,0.00,,,0.00,VWS V14.01,2013-10-09 17:18:00,
2013-10-09 13:23:00,63.5,45.1,30.40,SE,143,0.0,6.3,51,0.00,,,0.00,VWS V14.01,2013-10-09 17:23:00,
2013-10-09 13:28:00,63.6,46.3,30.40,SE,143,0.0,6.3,53,0.00,,,0.00,VWS V14.01,2013-10-09 17:28:00,
2013-10-09 13:33:00,63.6,45.2,30.39,SE,143,0.0,6.3,51,0.00,,,0.00,VWS V14.01,2013-10-09 17:33:00,
2013-10-09 13:39:00,63.8,45.5,30.40,SE,143,0.0,6.3,51,0.00,,,0.00,VWS V14.01,2013-10-09 17:39:00,
2013-10-09 13:44:00,63.8,45.3,30.39,SE,143,0.0,6.3,51,0.00,,,0.00,VWS V14.01,2013-10-09 17:44:00,
2013-10-09 13:49:00,63.8,44.8,30.39,SE,143,0.0,6.3,50,0.00,,,0.00,VWS V14.01,2013-10-09 17:49:00,
2013-10-09 13:54:00,63.7,44.5,30.39,SE,143,0.0,6.3,50,0.00,,,0.00,VWS V14.01,2013-10-09 17:54:00,
2013-10-09 13:59:00,63.8,45.5,30.39,SE,143,0.0,6.3,51,0.00,,,0.00,VWS V14.01,2013-10-09 17:59:00,
2013-10-09 14:04:00,64.2,46.1,30.39,SE,143,0.0,6.3,52,0.00,,,0.00,VWS V14.01,2013-10-09 18:04:00,
2013-10-09 14:09:00,64.7,46.4,30.39,SE,143,0.0,6.3,51,0.00,,,0.00,VWS V14.01,2013-10-09 18:09:00,
2013-10-09 14:14:00,65.0,45.9,30.39,SE,143,0.0,6.3,50,0.00,,,0.00,VWS V14.01,2013-10-09 18:14:00,
2013-10-09 14:19:00,65.1,45.8,30.39,SE,143,0.0,6.3,50,0.00,,,0.00,VWS V14.01,2013-10-09 18:19:00,
2013-10-09 14:24:00,65.0,45.3,30.39,SE,143,0.0,6.3,49,0.00,,,0.00,VWS V14.01,2013-10-09 18:24:00,
2013-10-09 14:29:00,65.0,45.1,30.39,SE,143,0.0,6.3,48,0.00,,,0.00,VWS V14.01,2013-10-09 18:29:00,
2013-10-09 14:34:00,65.0,45.6,30.39,SE,143,0.0,6.3,49,0.00,,,0.00,VWS V14.01,2013-10-09 18:34:00,
2013-10-09 14:39:00,65.0,45.3,30.39,SE,143,0.0,6.3,49,0.00,,,0.00,VWS V14.01,2013-10-09 18:39:00,
2013-10-09 14:45:00,65.1,45.7,30.39,SE,143,0.0,6.3,49,0.00,,,0.00,VWS V14.01,2013-10-09 18:45:00,
2013-10-09 14:50:00,65.2,45.7,30.39,SE,143,0.0,6.3,49,0.00,,,0.00,VWS V14.01,2013-10-09 18:50:00,
2013-10-09 14:55:00,65.3,45.5,30.39,SE,143,0.0,6.3,49,0.00,,,0.00,VWS V14.01,2013-10-09 18:55:00,
2013-10-09 15:00:00,65.5,45.4,30.39,SE,143,0.0,6.3,48,0.00,,,0.00,VWS V14.01,2013-10-09 19:00:00,
2013-10-09 15:05:00,65.7,46.5,30.39,SE,143,0.0,6.3,50,0.00,,,0.00,VWS V14.01,2013-10-09 19:05:00,
2013-10-09 15:10:00,65.8,45.9,30.39,SE,143,0.0,6.3,49,0.00,,,0.00,VWS V14.01,2013-10-09 19:10:00,
2013-10-09 15:15:00,65.9,46.1,30.39,SE,143,0.0,6.3,49,0.00,,,0.00,VWS V14.01,2013-10-09 19:15:00,
2013-10-09 15:20:00,66.1,45.9,30.39,SE,143,0.0,6.3,48,0.00,,,0.00,VWS V14.01,2013-10-09 19:20:00,
2013-10-09 15:25:00,66.1,46.1,30.38,SE,143,0.0,6.3,48,0.00,,,0.00,VWS V14.01,2013-10-09 19:25:00,
2013-10-09 15:30:00,65.8,45.1,30.38,SE,143,0.0,6.3,47,0.00,,,0.00,VWS V14.01,2013-10-09 19:30:00,
2013-10-09 15:35:00,65.6,45.8,30.38,SE,143,0.0,6.3,49,0.00,,,0.00,VWS V14.01,2013-10-09 19:35:00,
2013-10-09 15:40:00,65.6,46.4,30.38,SE,143,0.0,6.3,50,0.00,,,0.00,VWS V14.01,2013-10-09 19:40:00,
2013-10-09 15:46:00,65.7,46.2,30.38,SE,143,0.0,6.3,49,0.00,,,0.00,VWS V14.01,2013-10-09 19:46:00,
2013-10-09 15:51:00,65.6,46.2,30.38,SE,143,0.0,6.3,50,0.00,,,0.00,VWS V14.01,2013-10-09 19:51:00,
2013-10-09 15:56:00,65.3,45.7,30.38,SE,143,0.0,6.3,49,0.00,,,0.00,VWS V14.01,2013-10-09 19:56:00,
2013-10-09 16:01:00,65.1,45.7,30.38,SE,143,0.0,6.3,49,0.00,,,0.00,VWS V14.01,2013-10-09 20:01:00,
2013-10-09 16:06:00,64.7,45.4,30.38,SE,143,0.0,6.3,50,0.00,,,0.00,VWS V14.01,2013-10-09 20:06:00,
2013-10-09 16:11:00,64.5,46.3,30.37,SE,143,0.0,6.3,52,0.00,,,0.00,VWS V14.01,2013-10-09 20:11:00,
2013-10-09 16:16:00,64.2,45.7,30.37,SE,143,0.0,6.3,51,0.00,,,0.00,VWS V14.01,2013-10-09 20:16:00,
2013-10-09 16:21:00,63.9,45.5,30.37,SE,143,0.0,6.3,51,0.00,,,0.00,VWS V14.01,2013-10-09 20:21:00,
2013-10-09 16:26:00,63.7,45.6,30.37,SE,143,0.0,6.3,52,0.00,,,0.00,VWS V14.01,2013-10-09 20:26:00,
2013-10-09 16:31:00,63.5,45.8,30.37,SE,143,0.0,6.3,52,0.00,,,0.00,VWS V14.01,2013-10-09 20:31:00,
2013-10-09 16:36:00,63.4,46.3,30.37,SE,143,0.0,6.3,54,0.00,,,0.00,VWS V14.01,2013-10-09 20:36:00,
2013-10-09 16:41:00,63.2,46.0,30.37,SE,143,0.0,6.3,53,0.00,,,0.00,VWS V14.01,2013-10-09 20:41:00,
2013-10-09 16:47:00,63.0,46.0,30.37,SE,143,0.0,6.3,54,0.00,,,0.00,VWS V14.01,2013-10-09 20:47:00,
2013-10-09 16:52:00,62.9,46.3,30.37,SE,143,0.0,6.3,54,0.00,,,0.00,VWS V14.01,2013-10-09 20:52:00,
2013-10-09 16:57:00,62.8,46.5,30.38,SE,143,0.0,6.3,55,0.00,,,0.00,VWS V14.01,2013-10-09 20:57:00,
2013-10-09 17:02:00,62.8,46.6,30.38,SE,143,0.0,6.3,55,0.00,,,0.00,VWS V14.01,2013-10-09 21:02:00,
2013-10-09 17:07:00,62.6,46.8,30.38,SE,143,0.0,6.3,56,0.00,,,0.00,VWS V14.01,2013-10-09 21:07:00,
2013-10-09 17:12:00,62.4,46.8,30.37,SE,143,0.0,6.3,57,0.00,,,0.00,VWS V14.01,2013-10-09 21:12:00,
2013-10-09 17:17:00,62.2,47.2,30.37,SE,143,0.0,6.3,58,0.00,,,0.00,VWS V14.01,2013-10-09 21:17:00,
2013-10-09 17:22:00,62.0,47.1,30.37,SE,143,0.0,6.3,58,0.00,,,0.00,VWS V14.01,2013-10-09 21:22:00,
2013-10-09 17:27:00,61.8,47.1,30.37,SE,143,0.0,6.3,58,0.00,,,0.00,VWS V14.01,2013-10-09 21:27:00,
2013-10-09 17:32:00,61.5,47.1,30.37,SE,143,0.0,6.3,59,0.00,,,0.00,VWS V14.01,2013-10-09 21:32:00,
2013-10-09 17:37:00,61.4,47.3,30.36,SE,143,0.0,6.3,60,0.00,,,0.00,VWS V14.01,2013-10-09 21:37:00,
2013-10-09 17:42:00,61.1,47.3,30.36,SE,143,0.0,6.3,60,0.00,,,0.00,VWS V14.01,2013-10-09 21:42:00,
2013-10-09 17:47:00,60.8,47.1,30.36,SE,143,0.0,6.3,61,0.00,,,0.00,VWS V14.01,2013-10-09 21:47:00,
2013-10-09 17:53:00,60.5,47.2,30.36,SE,143,0.0,6.3,61,0.00,,,0.00,VWS V14.01,2013-10-09 21:53:00,
2013-10-09 17:58:00,60.3,47.5,30.36,SE,143,0.0,6.3,62,0.00,,,0.00,VWS V14.01,2013-10-09 21:58:00,
2013-10-09 18:03:00,60.0,47.8,30.36,SE,143,0.0,6.3,64,0.00,,,0.00,VWS V14.01,2013-10-09 22:03:00,
2013-10-09 18:08:00,59.6,48.0,30.36,SE,143,0.0,6.3,66,0.00,,,0.00,VWS V14.01,2013-10-09 22:08:00,
2013-10-09 18:13:00,59.4,47.8,30.36,SE,143,0.0,6.3,65,0.00,,,0.00,VWS V14.01,2013-10-09 22:13:00,
2013-10-09 18:18:00,59.2,48.1,30.36,SE,143,0.0,6.3,66,0.00,,,0.00,VWS V14.01,2013-10-09 22:18:00,
2013-10-09 18:23:00,59.0,48.0,30.36,SE,143,0.0,6.3,67,0.00,,,0.00,VWS V14.01,2013-10-09 22:23:00,
2013-10-09 18:28:00,58.7,48.1,30.36,SE,143,0.0,6.3,68,0.00,,,0.00,VWS V14.01,2013-10-09 22:28:00,
2013-10-09 18:33:00,58.2,47.5,30.36,SE,143,0.0,6.3,68,0.00,,,0.00,VWS V14.01,2013-10-09 22:33:00,
2013-10-09 18:38:00,58.1,47.7,30.36,SE,143,0.0,6.3,68,0.00,,,0.00,VWS V14.01,2013-10-09 22:38:00,
2013-10-09 18:43:00,57.9,47.5,30.36,SE,143,0.0,6.3,68,0.00,,,0.00,VWS V14.01,2013-10-09 22:43:00,
2013-10-09 18:49:00,57.7,47.6,30.35,SE,143,0.0,6.3,69,0.00,,,0.00,VWS V14.01,2013-10-09 22:49:00,
2013-10-09 18:54:00,57.5,47.6,30.35,SE,143,0.0,6.3,69,0.00,,,0.00,VWS V14.01,2013-10-09 22:54:00,
2013-10-09 18:59:00,57.4,47.7,30.35,SE,143,0.0,6.3,70,0.00,,,0.00,VWS V14.01,2013-10-09 22:59:00,
2013-10-09 19:04:00,57.3,47.6,30.35,SE,143,0.0,6.3,70,0.00,,,0.00,VWS V14.01,2013-10-09 23:04:00,
2013-10-09 19:09:00,57.0,47.5,30.35,SE,143,0.0,6.3,71,0.00,,,0.00,VWS V14.01,2013-10-09 23:09:00,
2013-10-09 19:14:00,56.9,47.9,30.35,SE,143,0.0,6.3,72,0.00,,,0.00,VWS V14.01,2013-10-09 23:14:00,
2013-10-09 19:19:00,56.8,48.0,30.35,SE,143,0.0,6.3,72,0.00,,,0.00,VWS V14.01,2013-10-09 23:19:00,
2013-10-09 19:24:00,56.6,47.9,30.35,SE,143,0.0,6.3,72,0.00,,,0.00,VWS V14.01,2013-10-09 23:24:00,
2013-10-09 19:29:00,56.5,47.9,30.35,SE,143,0.0,6.3,73,0.00,,,0.00,VWS V14.01,2013-10-09 23:29:00,
2013-10-09 19:34:00,56.4,48.1,30.35,SE,143,0.0,6.3,74,0.00,,,0.00,VWS V14.01,2013-10-09 23:34:00,
2013-10-09 19:39:00,56.2,48.1,30.35,SE,143,0.0,6.3,74,0.00,,,0.00,VWS V14.01,2013-10-09 23:39:00,
2013-10-09 19:44:00,55.9,48.1,30.35,SE,143,0.0,6.3,75,0.00,,,0.00,VWS V14.01,2013-10-09 23:44:00,
2013-10-09 19:50:00,55.6,48.1,30.35,SE,143,0.0,6.3,76,0.00,,,0.00,VWS V14.01,2013-10-09 23:50:00,
2013-10-09 19:55:00,55.4,47.9,30.35,SE,143,0.0,6.3,76,0.00,,,0.00,VWS V14.01,2013-10-09 23:55:00,
2013-10-09 20:00:00,55.3,47.9,30.35,SE,143,0.0,6.3,76,0.00,,,0.00,VWS V14.01,2013-10-10 00:00:00,
2013-10-09 20:05:00,55.1,48.1,30.35,SE,143,0.0,6.3,77,0.00,,,0.00,VWS V14.01,2013-10-10 00:05:00,
2013-10-09 20:10:00,55.0,47.9,30.35,SE,143,0.0,6.3,77,0.00,,,0.00,VWS V14.01,2013-10-10 00:10:00,
2013-10-09 20:15:00,54.9,48.0,30.35,SE,143,0.0,6.3,77,0.00,,,0.00,VWS V14.01,2013-10-10 00:15:00,
2013-10-09 20:20:00,54.9,48.1,30.35,SE,143,0.0,6.3,78,0.00,,,0.00,VWS V14.01,2013-10-10 00:20:00,
2013-10-09 20:25:00,54.7,47.8,30.35,SE,143,0.0,6.3,77,0.00,,,0.00,VWS V14.01,2013-10-10 00:25:00,
2013-10-09 20:30:00,54.8,47.7,30.35,SE,143,0.0,6.3,77,0.00,,,0.00,VWS V14.01,2013-10-10 00:30:00,
2013-10-09 20:35:00,54.8,47.8,30.35,SE,143,0.0,6.3,77,0.00,,,0.00,VWS V14.01,2013-10-10 00:35:00,
2013-10-09 20:40:00,54.5,47.4,30.35,SE,143,0.0,6.3,77,0.00,,,0.00,VWS V14.01,2013-10-10 00:40:00,
2013-10-09 20:46:00,54.6,47.4,30.35,SE,143,0.0,6.3,77,0.00,,,0.00,VWS V14.01,2013-10-10 00:46:00,
2013-10-09 20:51:00,54.5,47.4,30.35,SE,143,0.0,6.3,77,0.00,,,0.00,VWS V14.01,2013-10-10 00:51:00,
2013-10-09 20:56:00,54.4,47.3,30.35,SE,143,0.0,6.3,77,0.00,,,0.00,VWS V14.01,2013-10-10 00:56:00,
2013-10-09 21:01:00,54.3,47.4,30.35,SE,143,0.0,6.3,77,0.00,,,0.00,VWS V14.01,2013-10-10 01:01:00,
2013-10-09 21:06:00,54.3,47.5,30.35,SE,143,0.0,6.3,78,0.00,,,0.00,VWS V14.01,2013-10-10 01:06:00,
2013-10-09 21:11:00,54.2,47.5,30.35,SE,143,0.0,6.3,78,0.00,,,0.00,VWS V14.01,2013-10-10 01:11:00,
2013-10-09 21:16:00,54.0,47.4,30.35,SE,143,0.0,6.3,78,0.00,,,0.00,VWS V14.01,2013-10-10 01:16:00,
2013-10-09 21:21:00,54.0,47.4,30.35,SE,143,0.0,6.3,78,0.00,,,0.00,VWS V14.01,2013-10-10 01:21:00,
2013-10-09 21:26:00,53.9,47.4,30.35,SE,143,0.0,6.3,79,0.00,,,0.00,VWS V14.01,2013-10-10 01:26:00,
2013-10-09 21:31:00,53.9,47.5,30.35,SE,143,0.0,6.3,79,0.00,,,0.00,VWS V14.01,2013-10-10 01:31:00,
2013-10-09 21:36:00,53.8,47.4,30.35,SE,143,0.0,6.3,79,0.00,,,0.00,VWS V14.01,2013-10-10 01:36:00,
2013-10-09 21:42:00,53.7,47.4,30.35,SE,143,0.0,6.3,79,0.00,,,0.00,VWS V14.01,2013-10-10 01:42:00,
2013-10-09 21:47:00,53.7,47.5,30.35,SE,143,0.0,6.3,79,0.00,,,0.00,VWS V14.01,2013-10-10 01:47:00,
2013-10-09 21:52:00,53.6,47.5,30.35,SE,143,0.0,6.3,80,0.00,,,0.00,VWS V14.01,2013-10-10 01:52:00,
2013-10-09 21:57:00,53.5,47.5,30.35,SE,143,0.0,6.3,80,0.00,,,0.00,VWS V14.01,2013-10-10 01:57:00,
2013-10-09 22:02:00,53.5,47.6,30.35,SE,143,0.0,6.3,80,0.00,,,0.00,VWS V14.01,2013-10-10 02:02:00,
2013-10-09 22:07:00,53.5,47.7,30.35,SE,143,0.0,6.3,81,0.00,,,0.00,VWS V14.01,2013-10-10 02:07:00,
2013-10-09 22:12:00,53.3,47.5,30.35,SE,143,0.0,6.3,81,0.00,,,0.00,VWS V14.01,2013-10-10 02:12:00,
2013-10-09 22:17:00,53.3,47.6,30.35,SE,143,0.0,6.3,81,0.00,,,0.00,VWS V14.01,2013-10-10 02:17:00,
2013-10-09 22:22:00,53.2,47.6,30.35,SE,143,0.0,6.3,81,0.00,,,0.00,VWS V14.01,2013-10-10 02:22:00,
2013-10-09 22:28:00,53.1,47.6,30.35,SE,143,0.0,6.3,81,0.00,,,0.00,VWS V14.01,2013-10-10 02:28:00,
2013-10-09 22:33:00,53.2,47.8,30.35,SE,143,0.0,6.3,82,0.00,,,0.00,VWS V14.01,2013-10-10 02:33:00,
2013-10-09 22:38:00,53.0,47.6,30.35,SE,143,0.0,6.3,82,0.00,,,0.00,VWS V14.01,2013-10-10 02:38:00,
2013-10-09 22:43:00,52.9,47.6,30.35,SE,143,0.0,6.3,82,0.00,,,0.00,VWS V14.01,2013-10-10 02:43:00,
2013-10-09 22:48:00,52.9,47.7,30.35,SE,143,0.0,6.3,82,0.00,,,0.00,VWS V14.01,2013-10-10 02:48:00,
2013-10-09 22:53:00,52.6,47.7,30.35,SE,143,0.0,6.3,83,0.00,,,0.00,VWS V14.01,2013-10-10 02:53:00,
2013-10-09 22:58:00,52.4,47.7,30.35,SE,143,0.0,6.3,84,0.00,,,0.00,VWS V14.01,2013-10-10 02:58:00,
2013-10-09 23:03:00,52.3,47.7,30.35,SE,143,0.0,6.3,84,0.00,,,0.00,VWS V14.01,2013-10-10 03:03:00,
2013-10-09 23:08:00,52.1,47.5,30.35,SE,143,0.0,6.3,84,0.00,,,0.00,VWS V14.01,2013-10-10 03:08:00,
2013-10-09 23:14:00,52.0,47.4,30.34,SE,143,0.0,6.3,84,0.00,,,0.00,VWS V14.01,2013-10-10 03:14:00,
2013-10-09 23:19:00,51.8,47.2,30.34,SE,143,0.0,6.3,84,0.00,,,0.00,VWS V14.01,2013-10-10 03:19:00,
2013-10-09 23:24:00,51.9,47.2,30.34,SE,143,0.0,6.3,84,0.00,,,0.00,VWS V14.01,2013-10-10 03:24:00,
2013-10-09 23:29:00,51.6,47.4,30.34,SE,143,0.0,6.3,85,0.00,,,0.00,VWS V14.01,2013-10-10 03:29:00,
2013-10-09 23:34:00,51.3,47.2,30.34,SE,143,0.0,6.3,86,0.00,,,0.00,VWS V14.01,2013-10-10 03:34:00,
2013-10-09 23:39:00,51.2,47.7,30.34,SE,143,0.0,6.3,88,0.00,,,0.00,VWS V14.01,2013-10-10 03:39:00,
2013-10-09 23:44:00,50.9,47.5,30.34,SE,143,0.0,6.3,88,0.00,,,0.00,VWS V14.01,2013-10-10 03:44:00,
2013-10-09 23:49:00,50.8,47.5,30.34,SE,143,0.0,6.3,88,0.00,,,0.00,VWS V14.01,2013-10-10 03:49:00,
2013-10-09 23:54:00,50.7,47.5,30.34,SE,143,0.0,6.3,89,0.00,,,0.00,VWS V14.01,2013-10-10 03:54:00,
2013-10-09 23:59:00,50.6,47.4,30.34,SE,143,0.0,6.3,89,0.00,,,0.00,VWS V14.01,2013-10-10 03:59:00,